Powrót do katalogu

CZ-3 DEB

AktywnyHEO
NORAD 28984·DEBRIS·🇨🇳 China

Wystrzelony Feb 4, 1990 z Xichang Satellite Launch Center

Loading…

Następne Przeloty (najbliższe 24 godziny)

TLE

ŚwieżeSource: Space-Track

Epoka: Sep 5, 2026, 11:58 UTC

1 28984U 90011C   26248.49870837  .00002940  00000-0  78506-2 0  9993
2 28984  29.6366  29.2071 4666086 264.7349  42.4111  5.81992508 37478

Śledź CZ-3 DEB w czasie rzeczywistym z AllMySat

Download on the App Store